Dewpoint
22 22 20 19 18 16 13 14 16 18 18 18 21 23 29 29 20 17 22 23 21 21 21 19 18 15 15 18 18 17 16 16 16 17 18 18 18 18 19 20 21 23 24 26
21 21 20 19 20 20 15 14 15 17 18 22 23 22 22 23 23 21 19 21 23 21 20 19 17 16 15 16 16 17 15 14 15 16 17 17 17 17 18 19 20 21 23 25
17 18 17 15 17 19 20 19 17 14 18 21 22 23 24 23 22 22 20 20 22 22 20 18 16 16 14 15 15 14 13 13 14 15 16 16 16 16 17 19 20 21 22 23
18 16 10 19 17 23 20 20 21 19 19 21 23 25 27 26 25 23 21 20 19 20 18 16 15 14 14 13 13 13 13 12 13 13 13 15 16 15 16 19 20 21 22 23
17 16 18 19 19 19 18 17 23 21 20 18 19 23 25 23 21 23 24 20 20 19 16 14 13 12 12 12 12 12 12 12 13 12 11 12 14 15 17 19 20 21 21 22
21 14 12 18 19 19 21 11 23 23 22 22 20 16 18 18 21 17 17 18 15 12 11 10 11 11 10 10 11 11 12 12 12 11 12 12 13 15 18 19 19 20 21 22
18 17 20 23 16 19 12 16 29 28 24 23 22 21 14 11 11 12 13 11 11 9 10 10 10 9 8 9 9 11 12 11 11 11 12 13 15 17 18 18 20 20 21 22
19 18 14 16 8 16 23 20 22 18 26 24 20 11 9 9 8 8 7 8 8 8 8 9 9 7 6 7 9 10 10 10 10 11 13 15 14 15 17 19 19 19 20 21
21 20 29 18 26 21 20 21 12 15 15 19 16 10 10 8 7 6 5 5 5 6 6 7 7 7 5 6 7 7 8 8 9 11 12 13 15 16 17 18 18 18 19 19
23 24 22 20 19 18 16 15 13 16 17 17 15 12 10 9 8 6 4 4 5 3 1 1 2 4 5 6 5 6 6 7 10 10 12 14 15 16 17 17 17 18 18 19
23 23 23 23 17 18 15 16 15 14 15 15 12 9 9 9 8 7 5 5 5 5 4 2 2 2 3 4 5 4 5 7 9 11 12 12 14 16 17 18 19 19 21 22
21 18 21 15 13 16 14 13 13 13 12 10 10 8 7 6 7 6 5 5 4 3 3 2 2 2 2 3 3 1 2 6 9 11 11 12 13 14 17 18 19 20 21 22
19 10 10 10 12 14 14 14 14 12 11 9 10 9 8 4 2 5 3 2 2 1 1 -0 -0 -1 0 1 1 -0 1 5 7 10 10 11 12 13 13 14 16 18 20 21
9 9 7 7 6 11 11 10 10 7 6 5 3 3 2 2 -0 -0 -1 -1 -3 -3 -2 -2 -2 -4 -1 1 2 1 2 11 10 10 10 11 12 14 12 10 11 13 17 19
3 5 6 5 5 5 5 5 2 -0 -2 -4 -5 -5 -5 -5 -6 -7 -8 -7 -6 -7 -8 -7 -7 -5 -1 1 2 2 5 8 9 9 11 13 15 11 11 11 12 12 14 17
2 3 3 2 1 2 3 1 -3 -5 -6 -8 -10 -11 -12 -12 -12 -12 -10 -9 -10 -7 -8 -9 -7 -4 -1 1 2 3 7 11 11 10 12 13 10 9 9 10 11 12 13 15
-1 -2 -1 -3 -2 -2 -6 -7 -5 -8 -12 -12 -14 -16 -16 -14 -13 -11 -10 -10 -8 -8 -7 -5 -5 -2 -1 0 2 5 8 7 11 11 10 9 8 8 9 10 11 12 12 15
-1 1 -0 -1 -6 -10 -12 -12 -12 -13 -13 -15 -17 -17 -17 -16 -15 -14 -12 -11 -10 -8 -5 -2 -0 1 1 4 7 8 7 7 10 10 9 8 7 8 10 10 10 11 12 15
-7 -6 -6 -7 -8 -10 -12 -14 -14 -15 -17 -17 -17 -18 -19 -19 -16 -13 -11 -10 -9 -6 -2 1 6 9 7 7 8 7 7 11 9 8 7 8 6 6 8 9 9 11 13 14
-13 -12 -14 -16 -15 -14 -15 -16 -16 -18 -20 -20 -19 -17 -15 -13 -12 -11 -9 -7 -5 -3 -1 2 6 7 5 5 8 10 10 8 6 5 5 5 6 6 6 9 9 10 11 13
-14 -14 -14 -14 -15 -17 -17 -19 -19 -16 -18 -21 -19 -17 -16 -13 -10 -7 -6 -8 -3 -1 2 7 2 2 2 7 11 7 5 4 4 4 4 3 3 4 5 6 7 9 11 12
-15 -15 -16 -17 -16 -15 -18 -18 -17 -18 -17 -16 -16 -16 -13 -10 -7 -7 -5 -5 -4 3 2 4 1 5 6 11 8 5 4 4 4 4 3 3 2 2 3 4 6 9 10 11
-14 -15 -15 -18 -19 -14 -18 -19 -20 -18 -17 -15 -14 -12 -10 -8 -8 -9 -10 -4 -2 1 3 4 4 7 9 10 4 3 3 2 2 3 3 3 3 3 3 4 7 8 10 10
-15 -16 -15 -18 -24 -20 -17 -12 -17 -15 -19 -17 -16 -16 -13 -8 -8 -5 -4 -0 2 2 2 1 4 8 9 4 2 2 2 2 3 3 3 8 5 5 5 5 6 7 8 10
-15 -17 -18 -21 -19 -15 -13 -12 -15 -16 -15 -13 -10 -7 -9 -6 -7 -6 -4 -4 1 -0 -3 2 5 6 2 1 1 1 3 2 2 4 5 3 2 3 5 6 6 6 7 9
-15 -14 -13 -15 -12 -11 -11 -12 -13 -10 -10 -10 -10 -8 -6 -5 -5 -4 -4 -3 -4 -3 -5 -3 -2 1 1 1 2 3 1 1 2 1 3 3 3 4 5 5 5 6 7 8
-15 -6 -13 -14 -14 -13 -12 -11 -12 -12 -9 -8 -9 -8 -8 -7 -6 -5 -4 -8 -8 -7 -6 -4 -2 -1 1 2 1 0 1 1 4 4 5 4 3 3 4 5 6 7 8 8
Lifted_Index
3 3 3 3 4 4 4 4 4 4 4 5 6 7 8 9 10 10 10 11 12 13 14 14 15 17 18 19 19 19 19 19 19 20 20 20 19 19 18 19 19 20 21 22
3 3 3 3 4 4 4 4 4 4 4 5 6 7 8 8 9 9 10 10 11 12 13 14 15 16 17 18 19 19 19 19 19 20 20 20 20 19 18 18 18 19 20 21
2 3 3 3 4 4 5 5 5 5 5 5 6 6 7 8 8 8 9 10 10 11 13 14 15 15 16 17 18 18 18 18 19 20 20 20 20 19 18 18 18 18 18 19
2 2 3 4 5 5 5 5 5 5 5 5 5 6 7 7 7 7 8 9 10 11 12 13 14 15 16 16 17 17 17 18 19 19 20 20 19 19 18 18 18 17 17 18
2 2 3 4 5 5 5 5 5 5 5 5 4 5 5 6 6 7 8 8 9 11 12 13 14 15 15 16 16 16 17 18 18 19 19 19 19 19 18 18 18 17 17 17
2 2 2 4 5 5 4 4 4 4 4 4 3 3 4 5 6 7 8 8 9 11 12 13 14 15 15 15 15 16 17 18 18 19 19 19 19 19 19 18 18 17 17 16
2 2 2 4 5 4 3 3 3 3 3 3 3 3 3 4 5 6 7 9 10 11 12 13 14 15 15 15 16 17 17 18 18 19 19 19 19 19 19 18 18 17 16 16
2 2 3 4 4 3 2 2 2 2 2 2 2 2 3 4 5 6 8 9 11 11 12 13 15 15 15 16 17 17 17 18 18 19 19 19 19 19 19 18 18 17 16 15
2 2 2 2 2 2 2 2 2 2 2 2 2 3 3 4 6 7 9 10 11 12 12 14 15 15 16 16 17 18 17 18 18 19 19 19 19 19 18 18 18 17 16 15
1 1 1 1 1 1 2 2 2 3 3 3 3 3 4 5 7 9 10 11 12 12 13 14 15 16 17 17 18 18 18 18 18 18 19 19 19 19 19 18 18 17 16 15
2 2 1 1 1 1 1 2 3 3 4 4 4 5 6 7 9 10 12 12 13 14 14 15 16 17 18 18 19 18 18 18 18 18 18 19 19 19 19 19 19 18 17 16
2 2 2 2 2 2 2 3 3 4 4 5 6 7 8 9 10 12 13 13 14 15 15 16 17 18 19 19 19 19 18 18 18 18 19 19 19 19 19 19 19 19 17 17
3 3 3 2 2 3 4 4 5 6 6 7 9 10 10 11 12 13 14 15 15 16 17 17 18 18 19 20 20 19 19 18 18 19 19 19 19 19 19 19 18 18 17 16
3 3 3 3 4 5 6 7 7 8 9 10 11 12 13 13 14 14 15 16 17 17 17 18 18 19 19 20 20 19 19 19 19 19 19 19 19 19 19 18 17 16 16 16
3 3 4 5 6 7 8 8 9 9 11 12 13 14 14 15 15 16 17 17 18 18 18 18 18 19 19 20 19 19 19 18 18 18 18 19 19 19 19 18 17 16 15 15
4 5 6 7 7 8 9 10 10 11 12 13 14 15 15 16 16 17 18 19 19 18 19 19 19 19 19 19 19 18 18 18 18 18 18 18 18 18 18 18 17 16 15 15
6 6 7 8 9 9 10 11 12 13 14 15 15 16 16 17 17 17 18 19 19 19 19 19 19 19 19 19 18 18 18 17 17 17 17 17 17 17 17 17 17 16 16 15
9 9 10 10 11 11 12 13 14 15 15 16 16 17 17 17 17 18 19 19 19 19 19 19 19 19 18 18 18 18 17 17 17 16 16 16 16 16 16 17 17 16 16 16
12 12 12 13 13 13 14 14 15 16 16 17 17 17 17 18 18 19 19 19 19 19 19 19 19 18 18 18 18 18 17 17 17 16 16 16 16 16 16 16 16 16 16 16
13 13 14 14 14 15 15 15 16 16 17 17 17 17 17 18 18 19 19 18 18 19 19 19 19 19 18 18 17 17 17 17 17 17 16 16 15 15 15 15 16 16 16 16
13 13 13 14 14 14 15 15 16 16 16 17 17 17 17 18 18 18 18 18 19 19 19 19 19 19 18 17 16 16 16 16 16 16 16 15 15 14 14 15 15 16 16 16
13 13 13 13 13 14 15 15 16 16 16 16 16 17 17 17 18 18 18 18 19 19 19 19 19 18 16 16 15 16 16 16 16 16 16 15 15 14 14 15 15 15 16 16
12 12 13 13 13 13 14 15 15 15 15 16 16 16 17 17 17 17 18 19 19 19 19 18 18 17 16 15 15 15 15 15 15 15 16 15 15 15 15 15 15 15 16 16
12 12 12 13 13 13 13 14 14 15 15 15 16 16 17 17 17 18 18 19 19 19 19 18 17 16 16 15 15 15 15 15 15 15 15 15 15 15 15 15 15 16 16 16
12 12 12 12 12 12 12 13 13 14 14 15 15 16 17 17 18 18 19 19 19 19 18 17 17 16 16 15 15 15 15 14 14 15 15 15 15 15 15 15 15 16 16 16
11 11 11 11 11 12 12 12 12 12 13 13 14 16 17 17 18 18 19 19 19 19 18 17 16 16 15 15 14 14 14 14 14 14 14 14 14 14 14 15 15 16 16 16
11 11 11 11 11 12 12 12 11 12 12 13 14 15 16 17 18 18 18 19 19 18 17 16 16 15 15 14 14 14 13 13 13 13 14 14 14 14 14 15 15 16 16 17